TimeMDT,TemperatureF,Dew PointF,Humidity,Sea Level PressureIn,VisibilityMPH,Wind Direction,Wind SpeedMPH,Gust SpeedMPH,PrecipitationIn,Events,Conditions,WindDirDegrees,DateUTC
12:53 AM,41.0,14.0,33,29.95,10.0,WSW,6.9,-,N/A,,Clear,240,2012-10-08 06:53:00
1:53 AM,41.0,14.0,33,29.93,10.0,SW,12.7,-,N/A,,Clear,220,2012-10-08 07:53:00
2:53 AM,39.0,12.9,34,29.93,10.0,SW,9.2,-,N/A,,Clear,230,2012-10-08 08:53:00
3:53 AM,35.1,15.1,44,29.93,10.0,WSW,10.4,-,N/A,,Clear,250,2012-10-08 09:53:00
4:53 AM,32.0,15.1,50,29.93,10.0,WSW,8.1,-,N/A,,Clear,250,2012-10-08 10:53:00
5:53 AM,37.0,15.1,41,29.90,10.0,SW,10.4,-,N/A,,Clear,230,2012-10-08 11:53:00
6:53 AM,39.0,14.0,36,29.95,10.0,WSW,10.4,-,N/A,,Clear,240,2012-10-08 12:53:00
7:53 AM,41.0,12.9,32,29.95,10.0,WSW,6.9,-,N/A,,Clear,240,2012-10-08 13:53:00
8:53 AM,46.9,15.1,28,29.94,10.0,SSW,15.0,20.7,N/A,,Clear,210,2012-10-08 14:53:00
9:53 AM,48.9,15.1,26,29.93,10.0,SSW,17.3,-,N/A,,Clear,210,2012-10-08 15:53:00
10:53 AM,53.1,16.0,23,29.88,10.0,SSW,19.6,27.6,N/A,,Clear,210,2012-10-08 16:53:00
11:53 AM,55.0,15.1,21,29.87,10.0,SW,15.0,-,N/A,,Clear,220,2012-10-08 17:53:00
12:53 PM,60.1,16.0,18,29.83,10.0,SSW,17.3,-,N/A,,Clear,210,2012-10-08 18:53:00
1:33 PM,62.6,15.8,16,29.88,10.0,West,13.8,20.7,N/A,,Clear,260,2012-10-08 19:33:00
1:53 PM,63.0,15.1,16,29.78,10.0,NW,10.4,23.0,N/A,,Clear,310,2012-10-08 19:53:00
2:53 PM,63.0,14.0,15,29.76,10.0,WSW,13.8,-,N/A,,Clear,250,2012-10-08 20:53:00
3:53 PM,66.0,12.9,13,29.73,10.0,WNW,10.4,-,N/A,,Clear,300,2012-10-08 21:53:00
4:53 PM,62.1,14.0,15,29.75,10.0,NNW,12.7,-,N/A,,Clear,330,2012-10-08 22:53:00
5:53 PM,54.0,21.0,28,29.79,10.0,NNE,13.8,-,N/A,,Clear,30,2012-10-08 23:53:00
6:53 PM,50.0,23.0,35,29.84,10.0,NNE,8.1,-,N/A,,Clear,30,2012-10-09 00:53:00
7:53 PM,48.2,24.8,40,29.90,10.0,NE,8.1,-,N/A,,Clear,40,2012-10-09 01:53:00
8:53 PM,46.0,26.1,46,29.86,10.0,NNE,10.4,-,N/A,,Clear,30,2012-10-09 02:53:00
9:53 PM,44.1,27.0,51,29.88,10.0,NE,6.9,-,N/A,,Clear,40,2012-10-09 03:53:00
10:53 PM,42.1,28.0,58,29.90,10.0,NNE,4.6,-,N/A,,Clear,20,2012-10-09 04:53:00
11:53 PM,39.0,28.9,67,29.92,10.0,North,6.9,-,N/A,,Clear,360,2012-10-09 05:53:00